Weather History for Alpena, MI

Change the Weather History Date:

Sunday, March 25, 2012

  Actual Average Record
Temperature  
Mean Temperature 44 °F 32 °F  
Max Temperature 57 °F 42 °F 69 °F (1986)
Min Temperature 31 °F 23 °F -14 °F (1960)
Degree Days  
Heating Degree Days 21 33  
Month to date heating degree days 562 936  
Since 1 July heating degree days 5527 6668  
Cooling Degree Days 0 0  
Month to date cooling degree days 6 0  
Year to date cooling degree days 6 0  
Moisture  
Dew Point 35 °F    
Average Humidity 57    
Maximum Humidity 76    
Minimum Humidity 38    
Precipitation  
Precipitation 0.00 in 0.06 in 1.15 in (1947)
Month to date precipitation 1.85 1.47  
Year to date precipitation 5.33 4.45  
Snow  
Snow 0.00 in 0.30 in 14.00 in (1947)
Month to date snowfall 7.1 10.4  
Since 1 July snowfall 53.2 76.5  
Snow Depth 0.00 in    
Sea Level Pressure  
Sea Level Pressure 29.97 in    
Wind  
Wind Speed 11 mph (NW)    
Max Wind Speed 28 mph    
Max Gust Speed 41 mph    
Visibility 10 miles    
Events      
T = Trace of Precipitation, MM = Missing Value Source: NWS Daily Summary

Daily Weather History Graph

Daily Weather History Graph

Search for Another Location

Airport:

Trip Planner

Search our weather history database for the weather conditions in past years. The results will help you decide how hot, cold, wet, or windy it might be!

Date:

Astronomy

Mar. 25, 2012 Rise Set
Actual Time 7:27 AM EDT 7:53 PM EDT
Civil Twilight 6:57 AM EDT 8:23 PM EDT
Nautical Twilight 6:22 AM EDT 8:58 PM EDT
Astronomical Twilight 5:47 AM EDT 9:34 PM EDT
Moon 8:29 AM EDT (3/25) 11:19 PM EDT (3/25)
Length of Visible Light 13h 25m
Length of Day
12h 26m
Waxing Crescent, 8% of the Moon is Illuminated
Mar 25
Waxing Crescent
Mar 30
First Quarter
Apr 6
Full
Apr 13
Last Quarter
Apr 21
New

Hourly Weather History & Observations

Time (EDT) Temp. Windchill Dew Point Humidity Pressure Visibility Wind Dir Wind Speed Gust Speed Precip Events Conditions
12:43 AM 46.4 °F - 37.4 °F 71% 29.91 in 10.0 mi Calm Calm - 0.00 in   Overcast
12:54 AM 46.0 °F - 36.0 °F 68% 29.92 in 10.0 mi Calm Calm - 0.00 in   Overcast
1:17 AM 46.4 °F 44.3 °F 37.4 °F 71% 29.91 in 10.0 mi NNW 4.6 mph - N/A   Overcast
1:54 AM 45.0 °F 43.5 °F 36.0 °F 71% 29.91 in 10.0 mi NNW 3.5 mph - N/A   Overcast
2:10 AM 44.6 °F 43.1 °F 37.4 °F 76% 29.90 in 10.0 mi NNW 3.5 mph - N/A   Overcast
2:54 AM 45.0 °F - 37.0 °F 74% 29.90 in 10.0 mi Calm Calm - N/A   Overcast
3:54 AM 45.0 °F 43.5 °F 37.0 °F 74% 29.89 in 10.0 mi West 3.5 mph - N/A   Overcast
4:54 AM 45.0 °F - 37.0 °F 74% 29.90 in 10.0 mi Calm Calm - N/A   Overcast
5:54 AM 45.0 °F - 37.0 °F 74% 29.91 in 10.0 mi Calm Calm - N/A   Mostly Cloudy
6:24 AM 44.6 °F 43.1 °F 37.4 °F 76% 29.90 in 10.0 mi WNW 3.5 mph - N/A   Mostly Cloudy
6:54 AM 45.0 °F - 36.0 °F 71% 29.92 in 10.0 mi Calm Calm - N/A   Overcast
7:54 AM 46.0 °F 44.8 °F 36.0 °F 68% 29.94 in 10.0 mi WNW 3.5 mph - N/A   Scattered Clouds
8:23 AM 46.4 °F 45.2 °F 35.6 °F 66% 29.94 in 10.0 mi WNW 3.5 mph - N/A   Mostly Cloudy
8:54 AM 46.9 °F - 37.0 °F 68% 29.96 in 10.0 mi NW 4.6 mph - N/A   Scattered Clouds
9:28 AM 50.0 °F - 41.0 °F 71% 29.94 in 10.0 mi NW 13.8 mph 21.9 mph N/A   Mostly Cloudy
9:54 AM 50.0 °F - 42.1 °F 74% 29.97 in 10.0 mi NW 10.4 mph - N/A   Overcast
10:31 AM 53.6 °F - 42.8 °F 67% 29.96 in 10.0 mi NW 12.7 mph 17.3 mph N/A   Scattered Clouds
10:54 AM 54.0 °F - 42.1 °F 64% 29.97 in 10.0 mi NW 13.8 mph 23.0 mph N/A   Mostly Cloudy
11:54 AM 55.0 °F - 42.1 °F 62% 29.97 in 10.0 mi NW 9.2 mph 21.9 mph N/A   Mostly Cloudy
12:28 PM 55.4 °F - 41.0 °F 58% 29.97 in 10.0 mi NNW 15.0 mph 20.7 mph N/A   Scattered Clouds
12:54 PM 54.0 °F - 39.9 °F 59% 29.98 in 10.0 mi NW 9.2 mph 20.7 mph N/A   Scattered Clouds
1:54 PM 53.1 °F - 36.0 °F 52% 29.99 in 10.0 mi NW 15.0 mph 23.0 mph N/A   Clear
2:54 PM 55.0 °F - 35.1 °F 47% 29.96 in 10.0 mi NW 16.1 mph - N/A   Clear
3:54 PM 57.0 °F - 33.1 °F 40% 29.96 in 10.0 mi NW 13.8 mph 24.2 mph N/A   Clear
4:54 PM 55.9 °F - 30.9 °F 39% 29.97 in 10.0 mi NW 19.6 mph 26.5 mph N/A   Clear
5:54 PM 50.0 °F - 27.0 °F 41% 30.01 in 10.0 mi WNW 17.3 mph 28.8 mph N/A   Clear
6:54 PM 46.0 °F 39.0 °F 28.9 °F 51% 30.04 in 10.0 mi NW 17.3 mph 29.9 mph N/A   Clear
7:54 PM 39.9 °F 31.1 °F 27.0 °F 60% 30.07 in 10.0 mi NW 17.3 mph 25.3 mph N/A   Clear
8:54 PM 36.0 °F 28.0 °F 24.1 °F 62% 30.10 in 10.0 mi NW 11.5 mph 27.6 mph N/A   Clear
9:54 PM 34.0 °F 23.0 °F 23.0 °F 64% 30.14 in 10.0 mi NW 18.4 mph 29.9 mph N/A   Clear
10:54 PM 32.0 °F 19.5 °F 21.9 °F 66% 30.17 in 10.0 mi NW 21.9 mph 32.2 mph N/A   Clear
11:54 PM 30.9 °F 20.2 °F 21.9 °F 69% 30.20 in 10.0 mi NNW 15.0 mph 25.3 mph N/A   Clear